India Forums Logo

Rang Badalti Odhani

India Forums > Forum Index > Rang Badalti Odhani
Rang Badalti Odhani set in the village of Dhulwadi in Bhuj, Gujarat, the story unwinds with the marriage plans of the bubbly Khanak with her childhood lover Suraj.
<< | 1 | 2 | 3 | 4 | 5 | 6 | 7 | 8 | 9 | 10 | 11 | 12 | 13 | 14 | 15 | 16 | 17 | ... >>
TIDTopic SubjectStart DateLast Entry
1422158Khushboo's Blouses6/22/2010 12:01:56 PM6/22/2010 2:00:59 PM
1422189Khanak shocked me6/22/2010 12:28:51 PM6/22/2010 10:07:36 PM
1422238The Look On Shaan Face...6/22/2010 1:26:28 PM6/22/2010 1:59:04 PM
1422239LNMDJ REUNION!!! Video6/22/2010 1:28:09 PM6/23/2010 2:55:23 AM
1422267Really Odd6/22/2010 2:04:56 PM6/23/2010 12:48:41 PM
1422395TODAY"S UPDATE6/22/2010 7:45:48 PM6/22/2010 8:00:45 PM
142239722nd June Update - done6/22/2010 7:47:43 PM6/23/2010 6:14:42 AM
1422460shanak romance is important... cvs r nt wrng!6/22/2010 11:11:48 PM6/24/2010 9:20:18 AM
1422490Time 4 natasha 2 leave shaan?6/23/2010 12:16:03 AM6/23/2010 6:46:10 AM
1422510Gold Awards on 4th july6/23/2010 12:45:15 AM6/23/2010 3:39:33 AM
1422610khanak's life after marriage6/23/2010 3:59:20 AM6/23/2010 4:33:11 AM
1422953OMG shanak were perfect in 2day's epi!+precap6/23/2010 11:12:05 AM6/25/2010 11:29:16 AM
1422966Finally!! A good episode6/23/2010 11:25:45 AM7/1/2010 4:26:45 PM
142297023rd June-Odhini--HQVideo/Online/Download6/23/2010 11:28:13 AM6/23/2010 12:44:23 PM
1422971Confusion ke beech mein ShaNak, Natasha aur hum!6/23/2010 11:28:48 AM6/24/2010 8:49:59 AM
1422978Precap6/23/2010 11:33:31 AM6/23/2010 2:00:52 PM
1423091Favorite Star one jodi !6/23/2010 1:23:17 PM6/23/2010 2:17:43 PM
1423112Written Update - 23rd June6/23/2010 2:01:22 PM6/24/2010 6:26:08 AM
1423205SHAAN<36/23/2010 5:03:04 PM6/24/2010 4:11:59 AM
1423621I think the script and plot have become shallow6/24/2010 7:54:37 AM6/25/2010 11:14:53 PM
1423797Precap6/24/2010 11:07:52 AM6/24/2010 12:08:43 PM
1423801My Door, My Stairs my house ..... oh shan6/24/2010 11:12:34 AM6/30/2010 1:11:02 AM
1423802OMG!! shaNak were perfect in today's epi!!6/24/2010 11:13:33 AM6/25/2010 8:16:49 AM
142381424th June-Odhini--HQVideo/Online/Download6/24/2010 11:17:04 AM6/24/2010 11:17:04 AM
1423845Simple Sorry6/24/2010 11:45:59 AM6/24/2010 9:20:21 PM
142387724th June Written Update :)6/24/2010 12:23:28 PM6/25/2010 5:39:27 AM
1423879Where is Mr.Aggarwal ??6/24/2010 12:26:16 PM6/24/2010 2:10:53 PM
1423928Bittersweet episode6/24/2010 1:16:48 PM6/24/2010 1:33:00 PM
1423986OS - Shayad Yeh Pyaar Hai6/24/2010 2:47:31 PM6/25/2010 9:11:50 AM
1424143~ShaNak magic.... turning into mania~6/24/2010 10:50:14 PM6/26/2010 4:44:15 AM
1424185Interview of karan6/25/2010 12:40:48 AM6/25/2010 5:04:47 AM
1424332New here,just want to discuss Shanak6/25/2010 5:02:23 AM6/25/2010 8:48:58 AM
1424359Chii!!!!6/25/2010 5:53:29 AM6/28/2010 1:01:02 PM
1424410The stage is set - Karan - Article6/25/2010 7:24:38 AM6/26/2010 12:47:06 AM
1424489hey a lil adivice plz!:)6/25/2010 9:28:21 AM6/25/2010 9:28:21 AM
1424611Precap6/25/2010 11:06:48 AM6/25/2010 11:06:48 AM
1424612finally the SONG and our fabulous ShaNak<36/25/2010 11:06:49 AM6/25/2010 12:46:33 PM
1424623Shans attempts n Shandar6/25/2010 11:14:08 AM6/25/2010 12:15:03 PM
1424650Kuch Khas Hai6/25/2010 11:34:05 AM6/26/2010 12:03:14 AM
142466825th June-Odhini-HQ Video/Online/Download6/25/2010 11:47:45 AM6/25/2010 12:26:17 PM
1424719~Ek ajnaabi ehsaas hai... ShaNak ka liye~6/25/2010 12:18:11 PM6/28/2010 1:24:11 PM
1424798Kuch Khaas Sequence Pics6/25/2010 1:52:54 PM6/28/2010 11:45:12 PM
1424830Written Update - 25th June6/25/2010 2:37:08 PM6/28/2010 9:01:40 AM
1425032confusing precap6/26/2010 1:11:05 AM6/26/2010 2:14:03 AM
1425062Article:Shantanu high on luv6/26/2010 2:03:09 AM6/27/2010 10:22:36 AM
1425084LNMDJ interview6/26/2010 2:40:38 AM6/26/2010 9:03:30 AM
1425231music of Rbo6/26/2010 9:16:32 AM6/26/2010 2:30:44 PM
1425234backgroun music6/26/2010 9:19:48 AM6/26/2010 9:19:48 AM
1425242Want Shanak rain scene.!!6/26/2010 9:49:04 AM6/28/2010 4:52:25 AM
1425336Tose naina lage, piya baware6/26/2010 12:33:58 PM6/26/2010 12:47:17 PM
1425577shakira---khanak6/27/2010 3:32:35 AM7/16/2010 2:46:07 PM
1425761Karan tacker(Article)6/27/2010 12:38:10 PM6/28/2010 11:04:38 AM
1426310~*~ RBO Caption Contest - - Voting ~*~6/28/2010 11:24:45 AM7/4/2010 2:51:09 AM
1426318.:: // GOTW - - The Person Below Me //6/28/2010 11:33:50 AM7/11/2010 11:05:21 PM
1426330GOTW and DOTW sign-up list: July6/28/2010 11:38:29 AM7/2/2010 3:40:27 AM
1426372KT wins style icon award!6/28/2010 12:08:25 PM7/1/2010 4:15:17 PM
1426381Finally, a new day!!!6/28/2010 12:14:09 PM6/29/2010 4:28:49 AM
142638928th June-Odhini--HQVideo/Online/Download6/28/2010 12:22:16 PM6/28/2010 12:22:16 PM
1426464Most annoying sister combo!!!6/28/2010 1:28:20 PM6/29/2010 12:13:02 PM
1426516Written Update - 28th June6/28/2010 2:58:00 PM6/30/2010 12:23:16 AM
1426521Nimboo ka pani?6/28/2010 3:03:02 PM6/29/2010 12:38:26 AM
1426707WHAT HAPPEN ACTUALLY IN ROB6/29/2010 12:24:24 AM6/29/2010 12:43:31 AM
14268551 video-just gv a look6/29/2010 5:43:10 AM6/29/2010 9:19:01 AM
1427123Precap6/29/2010 11:07:53 AM6/29/2010 12:11:06 PM
1427129Tashu6/29/2010 11:11:57 AM6/30/2010 3:50:48 AM
142713029th June_Odhini-HQVideo/Online/Download6/29/2010 11:12:09 AM6/29/2010 1:41:42 PM
1427143rbo 29th june video update6/29/2010 11:24:45 AM6/29/2010 11:29:45 AM
1427146Wats wrong with Khanak6/29/2010 11:25:57 AM6/30/2010 1:38:41 PM
142738229th June Rang Update6/29/2010 4:34:58 PM6/30/2010 12:27:41 PM
1427441Episode 06/29 Pics ShaNak6/29/2010 8:14:28 PM6/30/2010 4:40:31 AM
1427475after 6 months !!!!6/29/2010 10:30:02 PM6/30/2010 10:07:09 AM
1427677new man in tashu's life...6/30/2010 4:51:31 AM7/2/2010 7:01:42 AM
1427778Obsessions.6/30/2010 7:27:03 AM6/30/2010 12:06:04 PM
1427917KT and Yash's ranking!! Great Job Odhanians.6/30/2010 10:16:29 AM7/16/2010 9:41:16 AM
1427962ShaNak Hug!!! +precap6/30/2010 10:57:01 AM6/30/2010 10:24:58 PM
<< | 1 | 2 | 3 | 4 | 5 | 6 | 7 | 8 | 9 | 10 | 11 | 12 | 13 | 14 | 15 | 16 | 17 | ... >>